TimeCST,TemperatureF,Dew PointF,Humidity,Sea Level PressureIn,VisibilityMPH,Wind Direction,Wind SpeedMPH,Gust SpeedMPH,PrecipitationIn,Events,Conditions,WindDirDegrees,DateUTC
12:15 AM,50.0,41.0,71,29.88,10.0,NNW,19.6,31.1,N/A,,Clear,330,2013-03-05 06:15:00
12:35 AM,48.2,41.0,76,29.89,10.0,NNW,20.7,35.7,N/A,,Clear,340,2013-03-05 06:35:00
12:55 AM,48.2,39.2,71,29.91,10.0,NNW,21.9,35.7,N/A,,Scattered Clouds,330,2013-03-05 06:55:00
1:15 AM,46.4,37.4,71,29.91,10.0,North,26.5,38.0,N/A,,Scattered Clouds,350,2013-03-05 07:15:00
1:55 AM,46.4,35.6,66,29.99,10.0,NNW,27.6,38.0,N/A,,Scattered Clouds,340,2013-03-05 07:55:00
2:35 AM,44.6,35.6,71,30.02,10.0,NNW,24.2,29.9,N/A,,Scattered Clouds,330,2013-03-05 08:35:00
2:55 AM,46.4,33.8,62,30.05,10.0,NNW,27.6,34.5,N/A,,Scattered Clouds,340,2013-03-05 08:55:00
3:15 AM,46.4,33.8,62,30.04,10.0,NNW,20.7,35.7,N/A,,Scattered Clouds,340,2013-03-05 09:15:00
3:35 AM,44.6,33.8,66,30.07,10.0,NNW,29.9,47.2,N/A,,Scattered Clouds,340,2013-03-05 09:35:00
3:55 AM,44.6,35.6,71,30.08,10.0,NNW,19.6,25.3,N/A,,Scattered Clouds,330,2013-03-05 09:55:00
4:15 AM,44.6,35.6,71,30.10,10.0,NNW,24.2,31.1,N/A,,Scattered Clouds,340,2013-03-05 10:15:00
4:55 AM,44.6,33.8,66,30.13,10.0,NNW,17.3,29.9,N/A,,Clear,330,2013-03-05 10:55:00
5:15 AM,42.8,32.0,66,30.13,10.0,NNW,23.0,32.2,N/A,,Clear,330,2013-03-05 11:15:00
5:35 AM,42.8,32.0,66,30.16,10.0,NNW,17.3,23.0,N/A,,Clear,340,2013-03-05 11:35:00
5:55 AM,42.8,32.0,66,30.18,10.0,NNW,13.8,25.3,N/A,,Clear,340,2013-03-05 11:55:00
6:15 AM,42.8,32.0,66,30.19,10.0,NNW,13.8,23.0,N/A,,Clear,340,2013-03-05 12:15:00
6:55 AM,41.0,32.0,70,30.22,10.0,NNW,12.7,18.4,N/A,,Clear,340,2013-03-05 12:55:00
7:15 AM,41.0,32.0,70,30.23,10.0,NNW,12.7,17.3,N/A,,Clear,340,2013-03-05 13:15:00
7:35 AM,41.0,30.2,65,30.25,10.0,NNW,11.5,23.0,N/A,,Clear,330,2013-03-05 13:35:00
7:55 AM,42.8,30.2,61,30.25,10.0,NNW,16.1,24.2,N/A,,Clear,330,2013-03-05 13:55:00
8:15 AM,42.8,26.6,53,30.26,10.0,NNW,21.9,26.5,N/A,,Clear,330,2013-03-05 14:15:00
8:35 AM,42.8,23.0,46,30.27,10.0,NNW,24.2,29.9,N/A,,Clear,340,2013-03-05 14:35:00
8:55 AM,44.6,23.0,43,30.27,10.0,NNW,27.6,33.4,N/A,,Clear,340,2013-03-05 14:55:00
9:15 AM,44.6,23.0,43,30.29,10.0,NNW,21.9,27.6,N/A,,Clear,340,2013-03-05 15:15:00
9:35 AM,44.6,21.2,39,30.30,10.0,NNW,21.9,27.6,N/A,,Clear,340,2013-03-05 15:35:00
9:55 AM,44.6,19.4,37,30.32,10.0,NNW,21.9,33.4,N/A,,Clear,340,2013-03-05 15:55:00
10:15 AM,46.4,19.4,34,30.32,10.0,NNW,21.9,31.1,N/A,,Clear,330,2013-03-05 16:15:00
10:35 AM,46.4,19.4,34,30.32,10.0,NNW,20.7,26.5,N/A,,Clear,330,2013-03-05 16:35:00
10:55 AM,46.4,17.6,32,30.33,10.0,NNW,18.4,28.8,N/A,,Clear,340,2013-03-05 16:55:00
11:15 AM,46.4,17.6,32,30.33,10.0,NNW,19.6,25.3,N/A,,Clear,340,2013-03-05 17:15:00
11:35 AM,48.2,17.6,30,30.33,10.0,NNW,17.3,25.3,N/A,,Clear,330,2013-03-05 17:35:00
11:55 AM,50.0,19.4,30,30.34,10.0,NNW,20.7,26.5,N/A,,Clear,330,2013-03-05 17:55:00
12:15 PM,50.0,19.4,30,30.34,10.0,NW,19.6,24.2,N/A,,Clear,320,2013-03-05 18:15:00
12:35 PM,51.8,19.4,28,30.33,10.0,NNW,18.4,24.2,N/A,,Clear,330,2013-03-05 18:35:00
12:55 PM,51.8,19.4,28,30.32,10.0,NNW,20.7,28.8,N/A,,Clear,330,2013-03-05 18:55:00
1:15 PM,51.8,19.4,28,30.32,10.0,NW,20.7,28.8,N/A,,Clear,320,2013-03-05 19:15:00
1:35 PM,51.8,19.4,28,30.31,10.0,NNW,17.3,31.1,N/A,,Clear,340,2013-03-05 19:35:00
1:55 PM,53.6,19.4,26,30.30,10.0,NNW,18.4,26.5,N/A,,Clear,330,2013-03-05 19:55:00
2:15 PM,53.6,19.4,26,30.30,10.0,NNW,15.0,25.3,N/A,,Clear,340,2013-03-05 20:15:00
2:35 PM,53.6,19.4,26,30.29,10.0,NNW,18.4,25.3,N/A,,Clear,330,2013-03-05 20:35:00
2:55 PM,53.6,19.4,26,30.29,10.0,NNW,15.0,25.3,N/A,,Clear,340,2013-03-05 20:55:00
3:15 PM,53.6,19.4,26,30.29,10.0,NW,13.8,23.0,N/A,,Clear,320,2013-03-05 21:15:00
3:35 PM,55.4,19.4,25,30.28,10.0,NNW,15.0,21.9,N/A,,Clear,340,2013-03-05 21:35:00
3:55 PM,55.4,19.4,25,30.28,10.0,NNW,13.8,-,N/A,,Clear,340,2013-03-05 21:55:00
4:15 PM,55.4,19.4,25,30.28,10.0,NNW,16.1,23.0,N/A,,Clear,330,2013-03-05 22:15:00
4:35 PM,55.4,19.4,25,30.28,10.0,NW,13.8,21.9,N/A,,Clear,320,2013-03-05 22:35:00
4:55 PM,55.4,19.4,25,30.28,10.0,NW,13.8,19.6,N/A,,Clear,320,2013-03-05 22:55:00
5:15 PM,53.6,19.4,26,30.29,10.0,NNW,12.7,18.4,N/A,,Clear,340,2013-03-05 23:15:00
5:35 PM,53.6,19.4,26,30.29,10.0,NW,13.8,19.6,N/A,,Clear,320,2013-03-05 23:35:00
5:55 PM,51.8,19.4,28,30.30,10.0,NW,11.5,-,N/A,,Clear,320,2013-03-05 23:55:00
6:15 PM,50.0,19.4,30,30.30,10.0,NW,11.5,-,N/A,,Clear,320,2013-03-06 00:15:00
6:35 PM,50.0,21.2,32,30.32,10.0,NW,10.4,-,N/A,,Clear,320,2013-03-06 00:35:00
6:55 PM,46.4,21.2,37,30.32,10.0,NW,8.1,-,N/A,,Clear,320,2013-03-06 00:55:00
7:15 PM,46.4,21.2,37,30.33,10.0,NW,6.9,-,N/A,,Clear,310,2013-03-06 01:15:00
7:35 PM,46.4,21.2,37,30.33,10.0,NW,8.1,-,N/A,,Clear,310,2013-03-06 01:35:00
7:55 PM,44.6,21.2,39,30.34,10.0,NW,8.1,-,N/A,,Clear,310,2013-03-06 01:55:00
8:15 PM,44.6,21.2,39,30.34,10.0,WNW,6.9,-,N/A,,Clear,300,2013-03-06 02:15:00
8:35 PM,44.6,21.2,39,30.35,10.0,NW,9.2,-,N/A,,Clear,310,2013-03-06 02:35:00
8:55 PM,44.6,23.0,43,30.35,10.0,NW,8.1,-,N/A,,Clear,310,2013-03-06 02:55:00
9:15 PM,42.8,23.0,46,30.35,10.0,NW,8.1,-,N/A,,Clear,320,2013-03-06 03:15:00
9:35 PM,42.8,23.0,46,30.36,10.0,NW,8.1,-,N/A,,Clear,320,2013-03-06 03:35:00
9:55 PM,42.8,23.0,46,30.36,10.0,NNW,10.4,-,N/A,,Clear,330,2013-03-06 03:55:00
10:15 PM,41.0,23.0,49,30.36,10.0,NNW,8.1,-,N/A,,Clear,330,2013-03-06 04:15:00
10:35 PM,41.0,23.0,49,30.37,10.0,NNW,10.4,-,N/A,,Clear,340,2013-03-06 04:35:00
10:55 PM,41.0,23.0,49,30.37,10.0,NNW,8.1,-,N/A,,Clear,340,2013-03-06 04:55:00
11:15 PM,41.0,23.0,49,30.37,10.0,NNW,9.2,-,N/A,,Clear,340,2013-03-06 05:15:00
11:35 PM,41.0,23.0,49,30.37,10.0,NNW,9.2,-,N/A,,Clear,340,2013-03-06 05:35:00
11:55 PM,41.0,24.8,53,30.38,10.0,NNW,8.1,-,N/A,,Clear,340,2013-03-06 05:55:00